Location: Bergnershof
(48.9468°N, 10.9431°E)
Time: 03:33:00
(UTC+00:00)

Nadezhda 3 Rocket - Pass Details

Date: 03 March 2021
Orbit: 957 x 999 km, 82.9° (Epoch: 11 April)

Event Time Altitude Azimuth Distance (km) Brightness Sun altitude
Rises 17:26:19 0° 353° (N) 3,724 7.1 -4.6°
Reaches altitude 10° 17:28:57 10° 359° (N) 2,775 6.4 -5.1°
Maximum altitude 17:35:09 51° 75° (ENE) 1,241 4.2 -6.1°
Drops below altitude 10° 17:41:19 10° 150° (SSE) 2,763 6.1 -7.1°
Sets 17:43:55 0° 156° (SSE) 3,707 6.8 -7.5°
